ASA51 KSLC-KSEA

Flight info

Callsign ASA51
Flight time 1h 51m
Altitude 38000
Route CGULL1 TWF PDT CHINS5
Aircraft B738/M-SDE2E3FGHIRWXY/LB1

Departure

Time 2026-05-06 21:37
Airport Salt Lake City International Airport (KSLC)

Arrival

Time 2026-05-06 23:28
Airport Seattle–Tacoma International Airport (KSEA)
Time Latitude Longitude Altitude Speed Heading
2026-05-06 21:18 40.78820 -111.99004 4233 ft 0 kts 355°
2026-05-06 21:26 40.78815 -111.99004 4231 ft 2 kts 355°
2026-05-06 21:27 40.78799 -111.99003 4233 ft 2 kts 359°
2026-05-06 21:27 40.78782 -111.99003 4232 ft 2 kts
2026-05-06 21:27 40.78766 -111.99006 4232 ft 2 kts 13°
2026-05-06 21:27 40.78750 -111.99012 4232 ft 2 kts 32°
2026-05-06 21:28 40.78739 -111.99027 4233 ft 2 kts 68°
2026-05-06 21:28 40.78735 -111.99048 4233 ft 2 kts 84°
2026-05-06 21:28 40.78733 -111.99070 4233 ft 2 kts 85°
2026-05-06 21:28 40.78732 -111.99084 4233 ft 0 kts 85°
2026-05-06 21:30 40.78733 -111.99071 4233 ft 4 kts 85°
2026-05-06 21:30 40.78738 -111.99004 4233 ft 10 kts 83°
2026-05-06 21:31 40.78747 -111.98882 4233 ft 16 kts 85°
2026-05-06 21:31 40.78758 -111.98705 4233 ft 22 kts 85°
2026-05-06 21:31 40.78774 -111.98478 4233 ft 27 kts 85°
2026-05-06 21:31 40.78792 -111.98206 4233 ft 32 kts 85°
2026-05-06 21:32 40.78812 -111.97913 4233 ft 22 kts 82°
2026-05-06 21:32 40.78810 -111.97690 4233 ft 10 kts 153°
2026-05-06 21:32 40.78715 -111.97676 4232 ft 15 kts 176°
2026-05-06 21:33 40.78609 -111.97666 4233 ft 17 kts 176°
2026-05-06 21:33 40.78467 -111.97658 4233 ft 23 kts 179°
2026-05-06 21:33 40.78290 -111.97627 4233 ft 28 kts 173°
2026-05-06 21:33 40.77882 -111.97548 4264 ft 38 kts 160°
2026-05-06 21:34 40.77580 -111.97495 4265 ft 19 kts 175°
2026-05-06 21:34 40.77476 -111.97480 4265 ft 5 kts 167°
2026-05-06 21:34 40.77468 -111.97476 4265 ft 0 kts 154°
2026-05-06 21:35 40.77466 -111.97473 4265 ft 4 kts 143°
2026-05-06 21:35 40.77458 -111.97394 4265 ft 12 kts 63°
2026-05-06 21:35 40.77530 -111.97323 4265 ft 15 kts 11°
2026-05-06 21:36 40.77561 -111.97324 4265 ft 14 kts 351°
2026-05-06 21:36 40.77905 -111.97367 4264 ft 79 kts 355°
2026-05-06 21:36 40.78491 -111.97434 4229 ft 116 kts 355°
2026-05-06 21:36 40.79504 -111.97535 4247 ft 173 kts 354°
2026-05-06 21:37 40.80711 -111.97697 4912 ft 177 kts 344°
2026-05-06 21:37 40.82035 -111.97979 5207 ft 207 kts 348°
2026-05-06 21:37 40.83237 -111.98820 5980 ft 189 kts 306°
2026-05-06 21:37 40.83829 -112.00332 6750 ft 193 kts 297°
2026-05-06 21:38 40.84496 -112.01976 6944 ft 219 kts 300°
2026-05-06 21:38 40.85314 -112.03805 7124 ft 244 kts 302°
2026-05-06 21:38 40.86258 -112.05795 7328 ft 264 kts 303°
2026-05-06 21:38 40.87280 -112.07818 7906 ft 264 kts 306°
2026-05-06 21:39 40.88341 -112.09833 8328 ft 270 kts 307°
2026-05-06 21:39 40.89430 -112.11842 8904 ft 269 kts 308°
2026-05-06 21:39 40.90545 -112.13849 9372 ft 272 kts 311°
2026-05-06 21:39 40.91676 -112.15855 9936 ft 272 kts 311°
2026-05-06 21:40 40.92811 -112.17853 10181 ft 282 kts 311°
2026-05-06 21:40 40.94030 -112.19981 10316 ft 299 kts 311°
2026-05-06 21:40 40.95337 -112.22226 10654 ft 321 kts 313°
2026-05-06 21:40 40.96004 -112.23685 10642 ft 344 kts 288°
2026-05-06 21:41 40.96185 -112.24736 10920 ft 350 kts 285°
2026-05-06 21:41 40.96880 -112.27851 11359 ft 357 kts 303°
2026-05-06 21:41 40.98539 -112.30240 12018 ft 354 kts 326°
2026-05-06 21:42 41.00538 -112.32165 12789 ft 359 kts 322°
2026-05-06 21:42 41.02335 -112.34525 13528 ft 367 kts 314°
2026-05-06 21:42 41.03957 -112.37179 14201 ft 373 kts 310°
2026-05-06 21:42 41.05527 -112.39937 14905 ft 375 kts 310°
2026-05-06 21:43 41.07231 -112.42491 15640 ft 374 kts 320°
2026-05-06 21:43 41.09260 -112.44619 16383 ft 372 kts 329°
2026-05-06 21:43 41.11468 -112.46426 17102 ft 374 kts 330°
2026-05-06 21:43 41.13689 -112.48242 17774 ft 377 kts 330°
2026-05-06 21:44 41.15921 -112.50098 18452 ft 379 kts 330°
2026-05-06 21:44 41.18130 -112.52072 19016 ft 383 kts 327°
2026-05-06 21:44 41.20242 -112.54207 19566 ft 387 kts 325°
2026-05-06 21:44 41.22378 -112.56435 20133 ft 390 kts 325°
2026-05-06 21:45 41.24519 -112.58647 20683 ft 393 kts 325°
2026-05-06 21:45 41.26698 -112.60877 21230 ft 396 kts 325°
2026-05-06 21:45 41.28801 -112.63291 21744 ft 402 kts 318°
2026-05-06 21:45 41.30684 -112.66027 22260 ft 406 kts 316°
2026-05-06 21:46 41.32567 -112.68855 22753 ft 409 kts 316°
2026-05-06 21:46 41.34467 -112.71700 23221 ft 413 kts 316°
2026-05-06 21:46 41.36392 -112.74550 23680 ft 416 kts 316°
2026-05-06 21:46 41.38343 -112.77412 24078 ft 418 kts 316°
2026-05-06 21:47 41.40301 -112.80278 24475 ft 419 kts 316°
2026-05-06 21:47 41.42250 -112.83194 24875 ft 422 kts 315°
2026-05-06 21:47 41.44183 -112.86147 25256 ft 424 kts 315°
2026-05-06 21:47 41.46122 -112.89136 25633 ft 426 kts 315°
2026-05-06 21:48 41.48070 -112.92140 26012 ft 429 kts 315°
2026-05-06 21:48 41.50026 -112.95156 26368 ft 431 kts 315°
2026-05-06 21:48 41.51996 -112.98189 26705 ft 433 kts 315°
2026-05-06 21:48 41.53977 -113.01236 27045 ft 435 kts 315°
2026-05-06 21:49 41.55937 -113.04251 27367 ft 437 kts 315°
2026-05-06 21:49 41.57936 -113.07327 27688 ft 439 kts 315°
2026-05-06 21:49 41.59940 -113.10413 27995 ft 441 kts 315°
2026-05-06 21:49 41.61955 -113.13517 28259 ft 443 kts 315°
2026-05-06 21:50 41.63975 -113.16636 28705 ft 441 kts 314°
2026-05-06 21:50 41.65972 -113.19725 29341 ft 436 kts 314°
2026-05-06 21:50 41.67953 -113.22795 29892 ft 433 kts 314°
2026-05-06 21:50 41.69922 -113.25846 30277 ft 434 kts 314°
2026-05-06 21:51 41.71893 -113.28901 30613 ft 434 kts 314°
2026-05-06 21:51 41.73862 -113.31956 31006 ft 432 kts 314°
2026-05-06 21:51 41.75821 -113.34998 31430 ft 430 kts 314°
2026-05-06 21:51 41.77111 -113.37004 31698 ft 429 kts 314°
2026-05-06 21:52 41.79055 -113.40029 32173 ft 426 kts 314°
2026-05-06 21:52 41.81594 -113.43985 32810 ft 420 kts 314°
2026-05-06 21:52 41.83504 -113.46961 33106 ft 421 kts 314°
2026-05-06 21:52 41.84798 -113.48979 33282 ft 422 kts 313°
2026-05-06 21:53 41.86686 -113.51926 33625 ft 421 kts 313°
2026-05-06 21:53 41.88593 -113.54905 34048 ft 419 kts 313°
2026-05-06 21:53 41.90486 -113.57867 34396 ft 417 kts 314°
2026-05-06 21:53 41.92380 -113.60834 34692 ft 417 kts 314°
2026-05-06 21:54 41.94266 -113.63791 35055 ft 415 kts 313°
2026-05-06 21:54 41.96139 -113.66731 35406 ft 413 kts 313°
2026-05-06 21:54 41.98009 -113.69665 35649 ft 413 kts 313°
2026-05-06 21:54 41.99880 -113.72605 35894 ft 414 kts 313°
2026-05-06 21:55 42.01726 -113.75509 36180 ft 412 kts 313°
2026-05-06 21:55 42.03584 -113.78435 36479 ft 411 kts 313°
2026-05-06 21:55 42.05437 -113.81356 36815 ft 408 kts 313°
2026-05-06 21:55 42.07283 -113.84267 37069 ft 408 kts 313°
2026-05-06 21:56 42.09124 -113.87171 37376 ft 407 kts 313°
2026-05-06 21:56 42.10956 -113.90064 37669 ft 406 kts 313°
2026-05-06 21:56 42.12792 -113.92964 37897 ft 406 kts 313°
2026-05-06 21:56 42.14601 -113.95826 38139 ft 405 kts 312°
2026-05-06 21:57 42.16420 -113.98712 38437 ft 404 kts 313°
2026-05-06 21:57 42.18241 -114.01601 38667 ft 403 kts 313°
2026-05-06 21:57 42.20058 -114.04494 38839 ft 404 kts 312°
2026-05-06 21:57 42.21871 -114.07391 38950 ft 405 kts 311°
2026-05-06 21:58 42.23692 -114.10289 39088 ft 405 kts 312°
2026-05-06 21:58 42.25522 -114.13191 39218 ft 406 kts 312°
2026-05-06 21:58 42.27357 -114.16094 39371 ft 406 kts 312°
2026-05-06 21:58 42.29186 -114.18986 39544 ft 405 kts 311°
2026-05-06 21:59 42.31017 -114.21891 39680 ft 406 kts 312°
2026-05-06 21:59 42.32849 -114.24795 39797 ft 406 kts 312°
2026-05-06 21:59 42.34682 -114.27707 39931 ft 407 kts 311°
2026-05-06 21:59 42.36508 -114.30610 40030 ft 404 kts 312°
2026-05-06 22:00 42.40164 -114.36311 40076 ft 403 kts 315°
2026-05-06 22:00 42.43863 -114.42081 40181 ft 409 kts 311°
2026-05-06 22:01 42.47479 -114.48061 40171 ft 411 kts 313°
2026-05-06 22:01 42.51496 -114.53573 40155 ft 411 kts 318°
2026-05-06 22:02 42.55694 -114.58852 40139 ft 411 kts 317°
2026-05-06 22:02 42.59853 -114.64164 40102 ft 409 kts 317°
2026-05-06 22:03 42.63999 -114.69464 40108 ft 408 kts 317°
2026-05-06 22:03 42.68124 -114.74758 40092 ft 408 kts 317°
2026-05-06 22:04 42.72211 -114.80023 40088 ft 406 kts 317°
2026-05-06 22:04 42.76305 -114.85311 40070 ft 405 kts 317°
2026-05-06 22:05 42.80387 -114.90595 40052 ft 404 kts 316°
2026-05-06 22:05 42.84456 -114.95874 40061 ft 403 kts 316°
2026-05-06 22:06 42.88517 -115.01150 40052 ft 403 kts 316°
2026-05-06 22:06 42.92568 -115.06424 40109 ft 402 kts 316°
2026-05-06 22:07 42.96613 -115.11701 40099 ft 402 kts 316°
2026-05-06 22:07 43.00634 -115.16957 40071 ft 402 kts 316°
2026-05-06 22:08 43.04667 -115.22239 40055 ft 402 kts 316°
2026-05-06 22:08 43.08731 -115.27475 40056 ft 401 kts 316°
2026-05-06 22:09 43.12751 -115.32796 40048 ft 402 kts 316°
2026-05-06 22:09 43.16780 -115.38142 40048 ft 403 kts 316°
2026-05-06 22:10 43.20824 -115.43482 40064 ft 403 kts 316°
2026-05-06 22:10 43.24788 -115.48952 40067 ft 404 kts 315°
2026-05-06 22:11 43.28868 -115.54271 40064 ft 405 kts 316°
2026-05-06 22:11 43.32955 -115.59608 40068 ft 405 kts 316°
2026-05-06 22:12 43.36996 -115.64948 40068 ft 406 kts 315°
2026-05-06 22:12 43.41058 -115.70345 40046 ft 406 kts 315°
2026-05-06 22:13 43.45107 -115.75754 40058 ft 406 kts 315°
2026-05-06 22:13 43.49159 -115.81156 40050 ft 405 kts 315°
2026-05-06 22:14 43.53190 -115.86575 40067 ft 405 kts 315°
2026-05-06 22:14 43.57220 -115.91979 40091 ft 404 kts 315°
2026-05-06 22:15 43.61240 -115.97400 40046 ft 403 kts 315°
2026-05-06 22:15 43.65234 -116.02841 40077 ft 403 kts 313°
2026-05-06 22:16 43.69241 -116.08233 40070 ft 401 kts 316°
2026-05-06 22:16 43.73247 -116.13544 40041 ft 402 kts 315°
2026-05-06 22:17 43.77232 -116.18974 40063 ft 402 kts 314°
2026-05-06 22:17 43.81269 -116.24316 40072 ft 401 kts 315°
2026-05-06 22:18 43.85228 -116.29777 40067 ft 402 kts 314°
2026-05-06 22:18 43.89183 -116.35260 40064 ft 403 kts 314°
2026-05-06 22:19 43.93167 -116.40745 40047 ft 404 kts 314°
2026-05-06 22:19 43.97153 -116.46212 40069 ft 405 kts 314°
2026-05-06 22:20 44.01164 -116.51718 40058 ft 406 kts 314°
2026-05-06 22:20 44.05176 -116.57236 40057 ft 406 kts 314°
2026-05-06 22:21 44.09197 -116.62775 40057 ft 406 kts 314°
2026-05-06 22:21 44.13189 -116.68290 40069 ft 406 kts 314°
2026-05-06 22:22 44.17194 -116.73831 40069 ft 405 kts 314°
2026-05-06 22:22 44.21197 -116.79381 40066 ft 405 kts 314°
2026-05-06 22:23 44.25194 -116.84931 40059 ft 405 kts 314°
2026-05-06 22:23 44.29189 -116.90473 40072 ft 404 kts 314°
2026-05-06 22:24 44.33164 -116.96027 40077 ft 404 kts 314°
2026-05-06 22:24 44.37132 -117.01586 40063 ft 404 kts 314°
2026-05-06 22:25 44.41066 -117.07108 40082 ft 403 kts 314°
2026-05-06 22:25 44.45027 -117.12671 40075 ft 403 kts 314°
2026-05-06 22:26 44.48986 -117.18230 40068 ft 403 kts 314°
2026-05-06 22:26 44.52943 -117.23791 40064 ft 401 kts 313°
2026-05-06 22:27 44.56852 -117.29340 40119 ft 398 kts 314°
2026-05-06 22:27 44.60789 -117.34850 40063 ft 400 kts 314°
2026-05-06 22:28 44.64677 -117.40396 40057 ft 402 kts 313°
2026-05-06 22:28 44.68613 -117.46010 40066 ft 403 kts 314°
2026-05-06 22:29 44.72568 -117.51632 40067 ft 405 kts 314°
2026-05-06 22:29 44.76526 -117.57276 40061 ft 406 kts 314°
2026-05-06 22:30 44.80469 -117.62912 40065 ft 406 kts 314°
2026-05-06 22:30 44.84430 -117.68586 40080 ft 406 kts 314°
2026-05-06 22:31 44.88386 -117.74265 40062 ft 405 kts 314°
2026-05-06 22:31 44.92339 -117.79951 40060 ft 405 kts 314°
2026-05-06 22:32 44.96266 -117.85612 40073 ft 405 kts 314°
2026-05-06 22:32 45.00209 -117.91307 40023 ft 405 kts 314°
2026-05-06 22:33 45.04170 -117.96980 40034 ft 405 kts 314°
2026-05-06 22:33 45.08083 -118.02645 40040 ft 404 kts 314°
2026-05-06 22:34 45.11997 -118.08344 40039 ft 404 kts 314°
2026-05-06 22:34 45.15914 -118.14058 40027 ft 404 kts 314°
2026-05-06 22:35 45.19829 -118.19782 40036 ft 404 kts 314°
2026-05-06 22:35 45.23739 -118.25507 40054 ft 404 kts 314°
2026-05-06 22:36 45.27628 -118.31200 40060 ft 403 kts 314°
2026-05-06 22:36 45.31534 -118.36931 40058 ft 403 kts 314°
2026-05-06 22:37 45.35430 -118.42670 40063 ft 403 kts 314°
2026-05-06 22:37 45.39321 -118.48411 40061 ft 402 kts 314°
2026-05-06 22:38 45.43198 -118.54144 40044 ft 402 kts 314°
2026-05-06 22:38 45.47034 -118.59825 40009 ft 399 kts 316°
2026-05-06 22:39 45.50908 -118.65455 40051 ft 397 kts 314°
2026-05-06 22:39 45.54704 -118.71199 39999 ft 398 kts 314°
2026-05-06 22:40 45.57879 -118.75958 40017 ft 398 kts 314°
2026-05-06 22:40 45.62335 -118.82619 40014 ft 399 kts 314°
2026-05-06 22:41 45.67467 -118.90303 39999 ft 399 kts 314°
2026-05-06 22:42 45.71246 -118.96083 39977 ft 400 kts 312°
2026-05-06 22:42 45.74853 -119.02159 39965 ft 401 kts 310°
2026-05-06 22:43 45.78430 -119.08290 39975 ft 401 kts 310°
2026-05-06 22:43 45.82026 -119.14416 39974 ft 401 kts 311°
2026-05-06 22:44 45.85624 -119.20526 39970 ft 401 kts 311°
2026-05-06 22:44 45.89200 -119.26602 39971 ft 401 kts 311°
2026-05-06 22:45 45.92792 -119.32718 39974 ft 400 kts 311°
2026-05-06 22:45 45.96381 -119.38844 39963 ft 400 kts 311°
2026-05-06 22:46 45.99962 -119.44970 39956 ft 400 kts 311°
2026-05-06 22:46 46.03542 -119.51109 39945 ft 399 kts 311°
2026-05-06 22:47 46.07091 -119.57205 39924 ft 399 kts 311°
2026-05-06 22:47 46.10654 -119.63342 39920 ft 399 kts 311°
2026-05-06 22:48 46.14211 -119.69481 39918 ft 398 kts 311°
2026-05-06 22:48 46.17741 -119.75586 39909 ft 398 kts 311°
2026-05-06 22:49 46.21283 -119.81724 39894 ft 398 kts 311°
2026-05-06 22:49 46.24816 -119.87864 39900 ft 397 kts 310°
2026-05-06 22:50 46.28352 -119.94019 39901 ft 397 kts 310°
2026-05-06 22:50 46.31879 -120.00174 39906 ft 397 kts 310°
2026-05-06 22:51 46.35385 -120.06305 39907 ft 397 kts 310°
2026-05-06 22:51 46.38892 -120.12474 39909 ft 396 kts 310°
2026-05-06 22:52 46.42373 -120.18680 39925 ft 396 kts 309°
2026-05-06 22:52 46.45877 -120.24844 39932 ft 396 kts 310°
2026-05-06 22:53 46.49381 -120.30996 39945 ft 396 kts 309°
2026-05-06 22:53 46.52887 -120.37168 39437 ft 401 kts 310°
2026-05-06 22:53 46.54665 -120.40307 38886 ft 395 kts 309°
2026-05-06 22:54 46.56367 -120.43330 38305 ft 388 kts 310°
2026-05-06 22:54 46.58014 -120.46380 37831 ft 377 kts 307°
2026-05-06 22:54 46.59504 -120.49452 37373 ft 369 kts 306°
2026-05-06 22:54 46.60936 -120.52519 36876 ft 364 kts 305°
2026-05-06 22:55 46.62379 -120.55622 36304 ft 378 kts 304°
2026-05-06 22:55 46.63900 -120.58858 35716 ft 396 kts 304°
2026-05-06 22:55 46.65487 -120.62208 35007 ft 401 kts 304°
2026-05-06 22:55 46.67054 -120.65507 34326 ft 402 kts 304°
2026-05-06 22:56 46.68651 -120.68865 33580 ft 403 kts 304°
2026-05-06 22:56 46.70249 -120.72230 32797 ft 404 kts 304°
2026-05-06 22:56 46.71849 -120.75599 32039 ft 405 kts 304°
2026-05-06 22:56 46.73451 -120.78974 31269 ft 406 kts 303°
2026-05-06 22:57 46.75064 -120.82369 30504 ft 407 kts 303°
2026-05-06 22:57 46.76673 -120.85763 29816 ft 406 kts 304°
2026-05-06 22:57 46.78279 -120.89114 29173 ft 401 kts 305°
2026-05-06 22:57 46.79893 -120.92397 28622 ft 395 kts 304°
2026-05-06 22:58 46.81416 -120.95707 28079 ft 390 kts 302°
2026-05-06 22:58 46.82907 -120.99017 27386 ft 388 kts 302°
2026-05-06 22:58 46.84412 -121.02263 26804 ft 384 kts 303°
2026-05-06 22:58 46.85898 -121.05433 26247 ft 381 kts 303°
2026-05-06 22:59 46.87393 -121.08608 25704 ft 377 kts 303°
2026-05-06 22:59 46.88881 -121.11741 25160 ft 374 kts 303°
2026-05-06 22:59 46.90365 -121.14843 24638 ft 371 kts 302°
2026-05-06 22:59 46.91811 -121.17947 24112 ft 368 kts 302°
2026-05-06 23:00 46.93247 -121.21045 23599 ft 366 kts 302°
2026-05-06 23:00 46.94673 -121.24121 22978 ft 364 kts 302°
2026-05-06 23:00 46.96090 -121.27167 22427 ft 361 kts 302°
2026-05-06 23:00 46.97494 -121.30206 21935 ft 358 kts 301°
2026-05-06 23:01 46.98863 -121.33264 21373 ft 360 kts 302°
2026-05-06 23:01 47.00271 -121.36234 20866 ft 358 kts 302°
2026-05-06 23:01 47.01681 -121.39227 20354 ft 356 kts 302°
2026-05-06 23:01 47.03095 -121.42192 19959 ft 350 kts 303°
2026-05-06 23:02 47.04450 -121.45072 19837 ft 337 kts 301°
2026-05-06 23:02 47.05733 -121.47885 19687 ft 326 kts 301°
2026-05-06 23:02 47.06968 -121.50605 19580 ft 314 kts 301°
2026-05-06 23:02 47.08178 -121.53256 19214 ft 313 kts 301°
2026-05-06 23:03 47.09389 -121.55902 18883 ft 311 kts 300°
2026-05-06 23:03 47.10601 -121.58541 18504 ft 311 kts 300°
2026-05-06 23:03 47.11793 -121.61134 18084 ft 310 kts 301°
2026-05-06 23:03 47.13013 -121.63785 17668 ft 308 kts 300°
2026-05-06 23:04 47.14218 -121.66352 17362 ft 304 kts 303°
2026-05-06 23:04 47.15411 -121.68863 16965 ft 302 kts 300°
2026-05-06 23:04 47.16551 -121.71415 16583 ft 299 kts 300°
2026-05-06 23:04 47.17701 -121.73958 16217 ft 297 kts 300°
2026-05-06 23:05 47.18851 -121.76493 15709 ft 299 kts 301°
2026-05-06 23:05 47.20012 -121.79041 15262 ft 300 kts 301°
2026-05-06 23:05 47.21171 -121.81580 14965 ft 296 kts 301°
2026-05-06 23:05 47.22343 -121.84082 14692 ft 296 kts 301°
2026-05-06 23:06 47.23482 -121.86590 14481 ft 294 kts 300°
2026-05-06 23:06 47.24618 -121.89119 14268 ft 298 kts 300°
2026-05-06 23:06 47.25171 -121.91960 13854 ft 305 kts 260°
2026-05-06 23:06 47.25348 -121.94978 13679 ft 296 kts 294°
2026-05-06 23:07 47.26591 -121.97313 13581 ft 299 kts 316°
2026-05-06 23:07 47.28206 -121.99276 13386 ft 303 kts 315°
2026-05-06 23:07 47.29722 -122.01441 13144 ft 305 kts 310°
2026-05-06 23:07 47.31105 -122.03798 12922 ft 302 kts 306°
2026-05-06 23:08 47.32362 -122.06256 12696 ft 298 kts 303°
2026-05-06 23:08 47.33543 -122.08763 12476 ft 295 kts 302°
2026-05-06 23:08 47.34673 -122.11243 12252 ft 288 kts 301°
2026-05-06 23:08 47.35770 -122.13673 12041 ft 281 kts 301°
2026-05-06 23:09 47.36956 -122.15975 11525 ft 289 kts 316°
2026-05-06 23:09 47.38704 -122.17497 10998 ft 297 kts 336°
2026-05-06 23:09 47.40748 -122.18130 10430 ft 300 kts 347°
2026-05-06 23:09 47.42746 -122.18516 10473 ft 273 kts 348°
2026-05-06 23:10 47.44564 -122.18835 10248 ft 255 kts 348°
2026-05-06 23:10 47.46257 -122.19142 9959 ft 244 kts 347°
2026-05-06 23:10 47.47944 -122.19456 9568 ft 245 kts 348°
2026-05-06 23:10 47.49651 -122.19750 9213 ft 247 kts 349°
2026-05-06 23:11 47.51353 -122.20014 8857 ft 244 kts 349°
2026-05-06 23:11 47.53027 -122.20267 8475 ft 240 kts 349°
2026-05-06 23:11 47.54673 -122.20514 8122 ft 236 kts 350°
2026-05-06 23:11 47.56308 -122.20743 7754 ft 235 kts 349°
2026-05-06 23:12 47.57936 -122.20935 7394 ft 234 kts 354°
2026-05-06 23:12 47.59566 -122.20958 7036 ft 234 kts 357°
2026-05-06 23:12 47.61204 -122.20953 6604 ft 235 kts 356°
2026-05-06 23:12 47.62819 -122.21008 6130 ft 230 kts 355°
2026-05-06 23:13 47.64391 -122.21044 5653 ft 228 kts 358°
2026-05-06 23:13 47.65982 -122.21008 5173 ft 229 kts 359°
2026-05-06 23:13 47.67577 -122.20873 4696 ft 230 kts
2026-05-06 23:13 47.69181 -122.20720 4218 ft 233 kts
2026-05-06 23:14 47.70796 -122.20713 4049 ft 229 kts 357°
2026-05-06 23:14 47.72407 -122.20782 4009 ft 231 kts 357°
2026-05-06 23:14 47.73996 -122.20807 3986 ft 226 kts 358°
2026-05-06 23:14 47.75574 -122.20867 3992 ft 227 kts 355°
2026-05-06 23:15 47.77149 -122.20930 3985 ft 225 kts 358°
2026-05-06 23:15 47.78718 -122.20997 3989 ft 225 kts 355°
2026-05-06 23:15 47.80272 -122.21099 3986 ft 223 kts 356°
2026-05-06 23:15 47.81801 -122.21209 3987 ft 222 kts 354°
2026-05-06 23:16 47.83350 -122.21318 3994 ft 223 kts 356°
2026-05-06 23:16 47.84905 -122.21421 3991 ft 224 kts 355°
2026-05-06 23:16 47.86458 -122.21511 3986 ft 223 kts 356°
2026-05-06 23:16 47.88010 -122.21605 3990 ft 224 kts 355°
2026-05-06 23:17 47.89569 -122.21691 3984 ft 224 kts 358°
2026-05-06 23:17 47.91127 -122.21814 3985 ft 223 kts 346°
2026-05-06 23:17 47.92413 -122.22975 3996 ft 219 kts 306°
2026-05-06 23:17 47.92956 -122.25035 3993 ft 214 kts 271°
2026-05-06 23:18 47.92956 -122.27255 3999 ft 214 kts 265°
2026-05-06 23:18 47.92812 -122.29425 3987 ft 213 kts 250°
2026-05-06 23:18 47.91972 -122.31169 3991 ft 208 kts 214°
2026-05-06 23:18 47.90719 -122.32218 3998 ft 206 kts 206°
2026-05-06 23:19 47.89381 -122.32973 3981 ft 207 kts 184°
2026-05-06 23:19 47.87997 -122.32473 4005 ft 207 kts 160°
2026-05-06 23:19 47.86616 -122.31833 4007 ft 205 kts 165°
2026-05-06 23:19 47.85242 -122.31371 3996 ft 202 kts 169°
2026-05-06 23:20 47.83840 -122.31050 3989 ft 203 kts 173°
2026-05-06 23:20 47.82426 -122.30837 3998 ft 204 kts 175°
2026-05-06 23:20 47.81012 -122.30711 3989 ft 202 kts 178°
2026-05-06 23:20 47.79619 -122.30648 3983 ft 203 kts 179°
2026-05-06 23:21 47.78240 -122.30631 3988 ft 194 kts 179°
2026-05-06 23:21 47.76903 -122.30643 3982 ft 191 kts 180°
2026-05-06 23:21 47.75578 -122.30681 3981 ft 189 kts 182°
2026-05-06 23:21 47.74242 -122.30735 3993 ft 192 kts 182°
2026-05-06 23:22 47.72918 -122.30795 3987 ft 188 kts 182°
2026-05-06 23:22 47.71617 -122.30867 3997 ft 185 kts 181°
2026-05-06 23:22 47.70331 -122.30948 3987 ft 184 kts 182°
2026-05-06 23:22 47.69063 -122.31039 3992 ft 185 kts 181°
2026-05-06 23:23 47.67776 -122.31124 3983 ft 185 kts 183°
2026-05-06 23:23 47.66481 -122.31216 3996 ft 189 kts 184°
2026-05-06 23:23 47.65167 -122.31309 3995 ft 189 kts 182°
2026-05-06 23:23 47.63867 -122.31401 4011 ft 181 kts 184°
2026-05-06 23:24 47.62648 -122.31482 3984 ft 170 kts 182°
2026-05-06 23:24 47.61479 -122.31560 3861 ft 173 kts 183°
2026-05-06 23:24 47.60226 -122.31665 3310 ft 181 kts 183°
2026-05-06 23:24 47.59053 -122.31680 3125 ft 157 kts 179°
2026-05-06 23:25 47.58029 -122.31672 2832 ft 145 kts 179°
2026-05-06 23:25 47.57044 -122.31677 2507 ft 136 kts 178°
2026-05-06 23:25 47.56076 -122.31686 2415 ft 142 kts 180°
2026-05-06 23:25 47.55098 -122.31696 2260 ft 138 kts 178°
2026-05-06 23:26 47.54150 -122.31700 1854 ft 138 kts 178°
2026-05-06 23:26 47.53229 -122.31680 1734 ft 129 kts 174°
2026-05-06 23:26 47.52275 -122.31671 1840 ft 145 kts 186°
2026-05-06 23:26 47.51282 -122.31758 1993 ft 149 kts 183°
2026-05-06 23:27 47.50276 -122.31735 1851 ft 137 kts 182°
2026-05-06 23:27 47.49349 -122.31770 1560 ft 132 kts 184°
2026-05-06 23:27 47.48428 -122.31765 1176 ft 134 kts 183°
2026-05-06 23:27 47.47499 -122.31775 831 ft 136 kts 182°
2026-05-06 23:28 47.46577 -122.31780 575 ft 128 kts 184°
2026-05-06 23:28 47.45713 -122.31802 393 ft 116 kts 182°
2026-05-06 23:28 47.44989 -122.31803 393 ft 90 kts 180°
2026-05-06 23:28 47.44672 -122.31790 393 ft 36 kts 169°
2026-05-06 23:29 47.44462 -122.31638 393 ft 32 kts 151°
2026-05-06 23:29 47.44284 -122.31469 393 ft 22 kts 129°
2026-05-06 23:29 47.44226 -122.31309 393 ft 0 kts 104°
2026-05-06 23:30 47.44223 -122.31288 393 ft 6 kts 106°
2026-05-06 23:30 47.44220 -122.31277 393 ft 0 kts 106°
2026-05-06 23:31 47.44217 -122.31273 393 ft 2 kts 136°
2026-05-06 23:31 47.44213 -122.31272 393 ft 0 kts 159°
2026-05-06 23:32 47.44209 -122.31276 393 ft 1 kts 216°
2026-05-06 23:32 47.44210 -122.31286 393 ft 1 kts 267°
2026-05-06 23:32 47.44209 -122.31297 393 ft 1 kts 266°
2026-05-06 23:32 47.44209 -122.31307 393 ft 1 kts 266°
2026-05-06 23:33 47.44209 -122.31317 393 ft 1 kts 274°
2026-05-06 23:33 47.44226 -122.31345 393 ft 10 kts 331°
2026-05-06 23:33 47.44354 -122.31363 393 ft 22 kts
2026-05-06 23:33 47.44508 -122.31361 393 ft 22 kts
2026-05-06 23:34 47.44617 -122.31360 393 ft 9 kts
2026-05-06 23:34 47.44646 -122.31295 393 ft 9 kts 91°
2026-05-06 23:34 47.44640 -122.31163 393 ft 18 kts 102°
2026-05-06 23:34 47.44554 -122.31023 393 ft 19 kts 150°
2026-05-06 23:35 47.44458 -122.30943 393 ft 0 kts 149°
2026-05-06 23:35 47.44395 -122.30887 393 ft 22 kts 143°
2026-05-06 23:36 47.44363 -122.30660 393 ft 25 kts 52°
2026-05-06 23:36 47.44523 -122.30631 393 ft 23 kts
2026-05-06 23:36 47.44681 -122.30632 393 ft 22 kts 359°
2026-05-06 23:36 47.44799 -122.30616 393 ft 11 kts 46°
2026-05-06 23:37 47.44800 -122.30506 393 ft 11 kts 105°
2026-05-06 23:37 47.44765 -122.30408 393 ft 11 kts 128°
2026-05-06 23:37 47.44719 -122.30323 393 ft 10 kts 127°
2026-05-06 23:37 47.44685 -122.30226 393 ft 11 kts 105°
2026-05-06 23:38 47.44669 -122.30131 393 ft 3 kts 130°
2026-05-06 23:38 47.44646 -122.30117 393 ft 4 kts 146°
2026-05-06 23:38 47.44632 -122.30102 393 ft 0 kts 144°
2026-05-06 23:38 47.44626 -122.30095 393 ft 3 kts 144°
2026-05-06 23:39 47.44611 -122.30080 393 ft 0 kts 144°
2026-05-06 23:39 47.44610 -122.30079 393 ft 0 kts 144°